Flag for Japan Weather past 2 weeks in Nagoya, Japan

Now
79 °F

Passing clouds.


Feels Like: 81 °F
Forecast: 58 / 82 °F
Wind: 22 mph from Northwest

Location: Nagoya Airport

Current Time: Sep 16, 2014 at 6:51:39 PM

Latest Report: Sep 16, 2014 at 6:30 PM


Visibility: N/A

Pressure: 29.86 "Hg

Humidity: 65%

Dew point: 66 °F

Location of NagoyaLocation

Historic Weather in Nagoya — Graph

°F

Nagoya temperature yesterday

Maximum temperature yesterday: 79 °F (at 12:30 PM)
Minimum temperature yesterday: 68 °F (at 5:30 AM)
Average temperature yesterday: 74 °F

Past Weeks' High & Low Weather Summary

 TemperatureHumidityPressure
High86 °F (Sep 6, 1:30 PM)100% (Sep 1, 5:00 PM)29.95 "Hg (Sep 1, 5:00 PM)
Low64 °F (Sep 14, 5:30 AM)45% (Sep 12, 11:30 AM)29.62 "Hg (Sep 8, 3:00 PM)
Average76 °F79%29.83 "Hg
* Reported Sep 1 5:00 PM — Sep 16 5:30 PM, Nagoya, Weather by CustomWeather, © 2014

Note: Actual official high and low records may vary slightly from our data, if they occured in-between our weather recording intervals... More about our weather records

Advertising

Nagoya weather history for previous 24 hours

 ConditionsComfort  
Time TempWeatherWind HumidityBarometerVisibility
5:30 PM
Sep 16
81 °FPassing clouds.18 mph62%29.83 "HgN/A
5:00 PM81 °FPassing clouds.14 mph66%29.83 "HgN/A
4:30 PM82 °FPassing clouds.7 mph66%29.83 "HgN/A
4:00 PM82 °FPassing clouds.3 mph70%29.83 "HgN/A
3:30 PM82 °FPassing clouds.5 mph70%29.83 "HgN/A
3:00 PM81 °FScattered clouds.6 mph70%29.83 "HgN/A
2:30 PM81 °FPartly sunny.6 mph70%29.80 "HgN/A
2:00 PM81 °FPartly sunny.7 mph70%29.83 "HgN/A
1:30 PM81 °FPartly sunny.5 mph66%29.83 "HgN/A
1:00 PM81 °FScattered clouds.5 mph66%29.83 "HgN/A
12:30 PM82 °FScattered clouds.3 mph58%29.86 "HgN/A
12:00 PM81 °FScattered clouds.3 mph62%29.86 "HgN/A
11:30 AM79 °FScattered clouds.6 mph70%29.86 "HgN/A
11:00 AM79 °FScattered clouds.7 mph65%29.86 "HgN/A
10:00 AM77 °FPassing clouds.6 mph69%29.89 "HgN/A
9:30 AM77 °FPassing clouds.9 mph69%29.89 "HgN/A
9:00 AM75 °FPassing clouds.10 mph74%29.89 "HgN/A
8:30 AM75 °FScattered clouds.8 mph74%29.89 "HgN/A
8:00 AM75 °FPassing clouds.14 mph74%29.89 "HgN/A
7:30 AM73 °FPassing clouds.12 mph78%29.89 "HgN/A
7:00 AM73 °FScattered clouds.12 mph78%29.89 "HgN/A
6:30 AM70 °FScattered clouds.12 mph88%29.89 "HgN/A
6:00 AM70 °FBroken clouds.10 mph88%29.86 "HgN/A
5:30 AM72 °FPartly cloudy.9 mph83%29.86 "HgN/A
5:00 AM72 °FPassing clouds.7 mph83%29.86 "HgN/A
4:30 AM72 °FPassing clouds.7 mph78%29.86 "HgN/A
4:00 AM72 °FScattered showers. Partly cloudy.7 mph78%29.86 "HgN/A
3:30 AM72 °FScattered showers. Partly cloudy.8 mph78%29.86 "HgN/A
3:00 AM73 °FPartly cloudy.8 mph83%29.86 "HgN/A
2:30 AM73 °FPartly cloudy.5 mph78%29.86 "HgN/A
2:00 AM73 °FPartly cloudy.6 mph78%29.86 "HgN/A
1:30 AM73 °FPartly cloudy.6 mph83%29.86 "HgN/A
1:00 AM73 °FPartly cloudy.6 mph89%29.86 "HgN/A
12:30 AM73 °FPassing clouds.2 mph89%29.86 "HgN/A
12:00 AM73 °FPassing clouds.2 mph89%29.89 "HgN/A
11:30 PM
Sep 15
73 °FPassing clouds.2 mph89%29.89 "HgN/A
11:00 PM73 °FPassing clouds.2 mph89%29.89 "HgN/A
10:30 PM73 °FPartly cloudy.3 mph89%29.89 "HgN/A
10:00 PM75 °FPartly cloudy.7 mph83%29.89 "HgN/A
9:30 PM75 °FPartly cloudy.9 mph83%29.89 "HgN/A
9:00 PM75 °FPartly cloudy.6 mph83%29.89 "HgN/A
8:30 PM75 °FPartly cloudy.5 mph83%29.89 "HgN/A
8:00 PM75 °FPartly cloudy.8 mph83%29.89 "HgN/A
7:30 PM75 °FPassing clouds.12 mph78%29.89 "HgN/A
7:00 PM75 °FPassing clouds.10 mph78%29.86 "HgN/A
6:30 PM75 °FPassing clouds.13 mph78%29.86 "HgN/A
6:00 PM75 °FPartly cloudy.13 mph78%29.86 "HgN/A
Weather by CustomWeather, © 2014

See weather overviewHow to use our weather pages